Flag for Finland Weather past 2 weeks in Joensuu, Finland

Now
55 °F

Rain. Mostly cloudy.


Feels Like: 55 °F
Forecast: 54 / 67 °F
Wind: 5 mph from West

Location: Joensuu Airport

Current Time: Jul 29, 2015 at 1:22:23 PM

Latest Report: Jul 29, 2015 at 12:50 PM


Visibility: 4 mi

Pressure: 29.45 "Hg

Humidity: 100%

Dew point: 55 °F

Location of JoensuuLocation

Historic Weather in Joensuu — Graph

°F

Joensuu temperature yesterday

Maximum temperature yesterday: 66 °F (at 1:20 PM)
Minimum temperature yesterday: 48 °F (at 3:50 AM)
Average temperature yesterday: 59 °F

Past Weeks' High & Low Weather Summary

 TemperatureHumidityPressure
High72 °F (Jul 18, 5:20 PM)100% (Jul 15, 3:50 AM)29.92 "Hg (Jul 15, 3:50 AM)
Low45 °F (Jul 17, 3:20 AM)38% (Jul 21, 5:20 PM)29.45 "Hg (Jul 29, 10:20 AM)
Average60 °F76%29.69 "Hg
* Reported Jul 14 11:20 AM — Jul 29 11:50 AM, Joensuu, Weather by CustomWeather, © 2015

Note: Actual official high and low records may vary slightly from our data, if they occured in-between our weather recording intervals... More about our weather records

Advertising

Joensuu weather history for previous 24 hours

 ConditionsComfort  
Time TempWeatherWind HumidityBarometerVisibility
11:50 AM
Wed, Jul 29
57 °FRain. More clouds than sun.5 mph94%29.45 "HgN/A
11:20 AM57 °FRain. Overcast.7 mph100%29.45 "HgN/A
11:07 AM57 °FLight rain. Partly sunny.3 mph100%29.45 "HgN/A
10:20 AM57 °FLight rain. Cloudy.3 mph94%29.45 "HgN/A
9:50 AM59 °FLight rain. Overcast.3 mph88%29.47 "HgN/A
9:20 AM59 °FLight rain. Overcast.2 mph88%29.47 "HgN/A
8:50 AM59 °FBroken clouds.6 mph82%29.47 "HgN/A
8:20 AM59 °FBroken clouds.5 mph88%29.47 "HgN/A
7:50 AM59 °FSunny.3 mph88%29.50 "Hg10 mi
7:20 AM59 °FSunny.3 mph88%29.50 "Hg10 mi
6:50 AM59 °FSunny.3 mph88%29.50 "Hg10 mi
5:50 AM59 °FBroken clouds.3 mph88%29.50 "HgN/A
5:20 AM59 °FOvercast.3 mph94%29.53 "HgN/A
4:50 AM59 °FOvercast.2 mph94%29.53 "HgN/A
4:20 AM59 °FClear.1 mph94%29.53 "Hg10 mi
3:50 AM59 °FMostly cloudy.2 mph94%29.53 "HgN/A
3:20 AM59 °FOvercast.2 mph94%29.53 "HgN/A
2:50 AM59 °FOvercast.No wind94%29.56 "HgN/A
2:20 AM59 °FOvercast.No wind94%29.56 "HgN/A
1:50 AM59 °FOvercast.1 mph94%29.56 "HgN/A
1:20 AM59 °FOvercast.3 mph94%29.56 "HgN/A
12:50 AM59 °FOvercast.1 mph88%29.56 "HgN/A
11:50 PM
Tue, Jul 28
61 °FOvercast.2 mph83%29.59 "HgN/A
11:20 PM59 °FOvercast.1 mph94%29.59 "HgN/A
10:50 PM61 °FOvercast.2 mph88%29.59 "HgN/A
10:20 PM61 °FSunny.1 mph88%29.59 "Hg10 mi
9:50 PM61 °FSunny.1 mph88%29.59 "Hg10 mi
9:20 PM63 °FSunny.No wind77%29.59 "Hg10 mi
8:50 PM63 °FPartly sunny.2 mph77%29.59 "HgN/A
8:20 PM63 °FPartly sunny.5 mph73%29.59 "HgN/A
7:50 PM63 °FCloudy.3 mph73%29.59 "HgN/A
7:20 PM64 °FMostly cloudy.3 mph68%29.59 "HgN/A
6:50 PM64 °FSunny.3 mph68%29.62 "Hg10 mi
6:20 PM64 °FPassing clouds.5 mph68%29.62 "HgN/A
5:50 PM64 °FBroken clouds.5 mph68%29.62 "HgN/A
5:20 PM64 °FBroken clouds.6 mph64%29.62 "HgN/A
4:50 PM64 °FBroken clouds.6 mph68%29.65 "HgN/A
4:20 PM66 °FPartly sunny.7 mph60%29.65 "HgN/A
3:50 PM64 °FPartly sunny.7 mph64%29.65 "HgN/A
3:20 PM64 °FPartly sunny.7 mph64%29.65 "HgN/A
2:50 PM64 °FPartly sunny.6 mph64%29.65 "HgN/A
2:20 PM64 °FPassing clouds.6 mph64%29.65 "HgN/A
1:50 PM64 °FPassing clouds.6 mph60%29.65 "HgN/A
1:20 PM66 °FPartly sunny.5 mph52%29.65 "HgN/A
Weather by CustomWeather, © 2015

See weather overviewHow to use our weather pages